Total_Precipitation_Accumulation
0.18 0.31 0.61 0.77 0.90 0.92 0.82 0.81 0.76 0.73 0.73 0.71 0.67 0.65 0.60 0.58 0.56 0.54 0.54 0.57 0.66 0.75 0.82 0.85 0.81 0.73 0.62 0.52 0.39 0.28 0.24 0.26 0.24 0.20 0.17 0.22 0.29 0.30 0.27 0.27 0.29 0.34 0.47
0.17 0.28 0.56 0.75 0.97 1.00 0.90 0.83 0.72 0.66 0.71 0.78 0.77 0.73 0.69 0.65 0.64 0.61 0.68 0.71 0.79 0.82 0.84 0.88 0.85 0.68 0.53 0.40 0.29 0.22 0.20 0.14 0.10 0.07 0.05 0.10 0.20 0.26 0.25 0.25 0.27 0.38 0.45
0.20 0.29 0.52 0.77 0.98 0.99 0.90 0.81 0.68 0.63 0.68 0.80 0.88 0.82 0.77 0.74 0.74 0.70 0.74 0.80 0.89 0.89 0.79 0.72 0.69 0.52 0.39 0.27 0.22 0.18 0.17 0.13 0.08 0.05 0.06 0.13 0.21 0.33 0.33 0.29 0.37 0.44 0.43
0.26 0.34 0.52 0.81 1.04 1.07 0.98 0.85 0.73 0.70 0.74 0.83 0.99 1.01 0.92 0.84 0.82 0.83 0.81 0.81 0.84 0.79 0.70 0.56 0.50 0.36 0.28 0.23 0.18 0.16 0.14 0.13 0.08 0.06 0.11 0.16 0.22 0.44 0.47 0.42 0.43 0.45 0.40
0.34 0.42 0.60 0.87 1.12 1.14 1.03 0.92 0.80 0.79 0.84 0.92 1.01 1.11 1.09 0.97 0.97 0.95 0.89 0.80 0.77 0.71 0.57 0.44 0.38 0.27 0.19 0.17 0.17 0.16 0.15 0.12 0.07 0.07 0.12 0.18 0.28 0.53 0.54 0.47 0.46 0.45 0.37
0.45 0.58 0.74 0.96 1.20 1.29 1.15 1.01 0.91 0.90 0.95 1.02 1.09 1.17 1.18 1.16 1.19 1.11 0.91 0.75 0.66 0.59 0.48 0.39 0.34 0.25 0.18 0.16 0.15 0.14 0.15 0.12 0.07 0.08 0.10 0.15 0.25 0.51 0.57 0.49 0.47 0.46 0.44
0.52 0.75 0.96 1.15 1.31 1.49 1.40 1.25 1.13 1.09 1.07 1.10 1.14 1.18 1.21 1.21 1.27 1.19 0.91 0.72 0.62 0.56 0.50 0.40 0.34 0.27 0.21 0.18 0.16 0.13 0.13 0.11 0.10 0.11 0.11 0.14 0.28 0.57 0.63 0.57 0.55 0.54 0.50
0.64 0.85 1.17 1.50 1.59 1.71 1.69 1.48 1.34 1.23 1.18 1.20 1.21 1.23 1.27 1.30 1.30 1.25 0.95 0.75 0.64 0.62 0.58 0.48 0.38 0.33 0.25 0.21 0.18 0.15 0.13 0.10 0.10 0.12 0.12 0.15 0.29 0.48 0.52 0.49 0.50 0.50 0.46
0.93 1.02 1.22 1.54 1.77 1.88 1.87 1.60 1.50 1.34 1.23 1.24 1.30 1.33 1.23 1.21 1.24 1.20 0.97 0.82 0.74 0.75 0.71 0.61 0.51 0.41 0.31 0.25 0.20 0.16 0.11 0.08 0.08 0.12 0.12 0.14 0.25 0.41 0.43 0.40 0.44 0.46 0.45
1.37 1.37 1.40 1.58 1.78 2.01 2.03 1.66 1.47 1.34 1.25 1.22 1.21 1.11 0.96 0.94 1.01 1.06 0.97 0.86 0.78 0.80 0.76 0.66 0.58 0.47 0.38 0.30 0.23 0.16 0.11 0.09 0.09 0.12 0.13 0.15 0.28 0.40 0.41 0.42 0.43 0.45 0.47
1.79 1.80 1.75 1.75 1.77 1.92 2.05 1.82 1.63 1.47 1.32 1.21 1.16 1.02 0.93 0.91 0.92 0.85 0.78 0.76 0.76 0.79 0.81 0.72 0.61 0.53 0.39 0.29 0.23 0.18 0.15 0.12 0.13 0.18 0.18 0.21 0.32 0.40 0.45 0.48 0.48 0.48 0.49
1.89 1.89 1.94 1.95 1.91 1.92 1.94 1.93 1.83 1.60 1.43 1.26 1.13 1.03 1.02 1.01 0.97 0.84 0.79 0.76 0.80 0.81 0.89 0.84 0.68 0.59 0.43 0.34 0.29 0.23 0.19 0.15 0.17 0.21 0.21 0.28 0.40 0.48 0.53 0.51 0.45 0.46 0.50
2.15 2.05 2.03 2.11 2.18 2.08 2.02 1.92 1.82 1.61 1.48 1.41 1.27 1.13 1.11 1.20 1.15 1.07 0.93 0.83 0.85 0.81 0.82 0.82 0.75 0.61 0.46 0.38 0.34 0.28 0.23 0.22 0.21 0.23 0.25 0.33 0.49 0.60 0.60 0.54 0.45 0.44 0.47
2.55 2.40 2.36 2.43 2.43 2.32 2.17 2.02 1.87 1.64 1.45 1.40 1.35 1.33 1.26 1.22 1.11 1.06 0.98 0.83 0.79 0.77 0.76 0.77 0.71 0.65 0.59 0.48 0.41 0.39 0.36 0.31 0.29 0.32 0.32 0.33 0.46 0.60 0.67 0.67 0.58 0.56 0.56
2.76 2.78 2.71 2.74 2.77 2.64 2.49 2.24 1.93 1.76 1.53 1.40 1.39 1.40 1.33 1.23 1.13 1.06 1.01 0.98 0.86 0.79 0.76 0.82 0.82 0.75 0.71 0.65 0.54 0.45 0.42 0.42 0.38 0.38 0.37 0.38 0.43 0.55 0.72 0.82 0.83 0.81 0.82
2.79 2.96 3.06 3.06 2.99 2.88 2.69 2.43 2.07 1.89 1.70 1.59 1.50 1.43 1.37 1.33 1.30 1.23 1.08 1.02 0.96 0.88 0.83 0.89 0.91 0.84 0.81 0.73 0.65 0.56 0.49 0.48 0.41 0.38 0.38 0.40 0.40 0.48 0.66 0.83 0.95 1.04 1.06
2.76 3.05 3.22 3.34 3.44 3.20 2.96 2.70 2.38 2.17 1.96 1.79 1.62 1.51 1.42 1.34 1.40 1.38 1.28 1.10 0.99 1.01 1.00 1.00 1.05 1.04 0.94 0.82 0.74 0.67 0.60 0.53 0.47 0.43 0.42 0.41 0.38 0.37 0.50 0.71 0.89 1.01 1.09
2.72 2.94 3.15 3.17 3.40 3.49 3.35 3.08 2.66 2.37 2.17 2.03 1.88 1.72 1.64 1.49 1.50 1.53 1.43 1.33 1.23 1.22 1.22 1.16 1.09 1.01 0.93 0.81 0.74 0.71 0.67 0.62 0.56 0.55 0.54 0.47 0.41 0.34 0.39 0.52 0.65 0.81 0.97
2.75 2.88 3.14 3.16 3.23 3.42 3.55 3.41 3.11 2.79 2.48 2.30 2.20 2.03 1.92 1.81 1.72 1.72 1.63 1.54 1.51 1.46 1.43 1.35 1.23 1.09 0.97 0.87 0.80 0.80 0.79 0.73 0.68 0.64 0.59 0.51 0.48 0.44 0.43 0.43 0.46 0.55 0.68
2.82 3.06 3.25 3.41 3.42 3.59 3.94 3.93 3.63 3.32 2.98 2.76 2.55 2.40 2.25 2.16 2.06 1.94 1.88 1.79 1.73 1.64 1.56 1.54 1.42 1.27 1.11 1.04 1.00 0.91 0.85 0.78 0.76 0.72 0.67 0.60 0.55 0.54 0.56 0.56 0.55 0.53 0.57
2.54 2.87 2.99 3.27 3.49 3.63 3.75 3.76 3.54 3.26 3.02 2.85 2.80 2.75 2.57 2.40 2.32 2.19 2.03 2.02 1.96 1.80 1.63 1.61 1.62 1.50 1.35 1.32 1.28 1.06 0.90 0.81 0.76 0.71 0.74 0.74 0.66 0.60 0.61 0.67 0.71 0.66 0.55
2.17 2.39 2.62 2.84 3.11 3.32 3.36 3.39 3.47 3.47 3.21 2.92 2.83 2.83 2.79 2.71 2.56 2.36 2.19 2.11 2.09 2.03 1.83 1.70 1.74 1.72 1.59 1.55 1.56 1.50 1.29 1.08 0.85 0.74 0.74 0.74 0.72 0.70 0.65 0.62 0.63 0.66 0.65
1.92 2.09 2.28 2.53 2.69 2.82 3.15 3.41 3.46 3.65 3.56 3.12 2.77 2.61 2.71 2.82 2.82 2.64 2.42 2.35 2.28 2.25 2.15 1.99 1.90 1.87 1.83 1.73 1.73 1.90 1.69 1.35 1.01 0.84 0.81 0.79 0.77 0.79 0.78 0.72 0.67 0.66 0.67
1.65 1.81 2.03 2.34 2.56 2.61 2.87 3.10 3.08 3.00 3.05 2.83 2.64 2.63 2.71 2.77 2.85 2.85 2.70 2.50 2.41 2.36 2.30 2.36 2.36 2.22 2.11 1.92 1.78 1.68 1.64 1.48 1.40 1.16 0.93 0.90 0.86 0.82 0.86 0.84 0.78 0.75 0.70
1.43 1.52 1.72 2.09 2.39 2.53 2.60 2.75 2.91 2.91 2.88 2.92 2.84 2.77 2.69 2.60 2.65 2.77 2.77 2.62 2.38 2.25 2.19 2.24 2.33 2.38 2.25 2.04 1.88 1.77 1.68 1.50 1.40 1.43 1.23 1.03 0.99 0.88 0.84 0.88 0.91 0.92 0.92
1.24 1.25 1.41 1.66 2.09 2.45 2.55 2.57 2.64 2.69 2.65 2.72 2.80 2.77 2.73 2.60 2.48 2.49 2.51 2.45 2.37 2.24 2.13 2.15 2.27 2.36 2.38 2.29 2.08 1.87 1.78 1.67 1.46 1.46 1.42 1.26 1.23 1.10 0.97 0.96 1.00 1.04 1.06